| time (UTC) | temp C | wind direction | speed KPH | gust KPH | rain 1hr cm | rain 24hr cm | rain mn cm | humidity % | barometer mb |
| 20260508012511 | 10 | 338 | 3.2 | 9.7 | 0.00 | 0.00 | 0.00 | 47 | 1012.2 |
| 20260508012011 | 10 | 326 | 0.0 | 8.0 | 0.00 | 0.00 | 0.00 | 46 | 1012.2 |
| 20260508011529 | 11 | 353 | 3.2 | 9.7 | 0.00 | 0.00 | 0.00 | 46 | 1012.1 |
| 20260508011004 | 11 | 280 | 1.6 | 9.7 | 0.00 | 0.00 | 0.00 | 46 | 1012.0 |
| 20260508010511 | 11 | 193 | 3.2 | 14.5 | 0.00 | 0.00 | 0.00 | 45 | 1012.0 |
| 20260508010023 | 11 | 259 | 3.2 | 14.5 | 0.00 | 0.00 | 0.00 | 45 | 1011.9 |
| 20260508005510 | 11 | 276 | 3.2 | 12.9 | 0.00 | 0.00 | 0.00 | 45 | 1011.9 |
| 20260508005008 | 11 | 320 | 4.8 | 12.9 | 0.00 | 0.00 | 0.00 | 45 | 1011.8 |
| 20260508004535 | 11 | 318 | 1.6 | 12.9 | 0.00 | 0.00 | 0.00 | 45 | 1011.8 |
| 20260508004013 | 11 | 27 | 3.2 | 12.9 | 0.00 | 0.00 | 0.00 | 45 | 1011.7 |
| 20260508003507 | 11 | 257 | 3.2 | 9.7 | 0.00 | 0.00 | 0.00 | 45 | 1011.6 |
| 20260508003012 | 11 | 338 | 4.8 | 19.3 | 0.00 | 0.00 | 0.00 | 44 | 1011.4 |
| 20260508002507 | 12 | 273 | 3.2 | 19.3 | 0.00 | 0.00 | 0.00 | 43 | 1011.3 |
| 20260508002008 | 12 | 311 | 1.6 | 9.7 | 0.00 | 0.00 | 0.00 | 44 | 1011.2 |
| 20260508001519 | 12 | 316 | 3.2 | 9.7 | 0.00 | 0.00 | 0.00 | 43 | 1011.0 |
| 20260508001009 | 12 | 22 | 1.6 | 27.4 | 0.00 | 0.00 | 0.00 | 43 | 1010.9 |
| 20260508000510 | 12 | 295 | 8.0 | 27.4 | 0.00 | 0.00 | 0.00 | 42 | 1010.8 |
| 20260508000021 | 12 | 25 | 6.4 | 17.7 | 0.00 | 0.00 | 0.00 | 42 | 1010.7 |
| 20260507235507 | 12 | 326 | 9.7 | 19.3 | 0.00 | 0.00 | 0.00 | 42 | 1010.7 |
| 20260507235008 | 12 | 347 | 6.4 | 19.3 | 0.00 | 0.00 | 0.00 | 42 | 1010.6 |
| 20260507234525 | 12 | 25 | 3.2 | 14.5 | 0.00 | 0.00 | 0.00 | 42 | 1010.6 |
| 20260507234006 | 13 | 355 | 4.8 | 17.7 | 0.00 | 0.00 | 0.00 | 41 | 1010.6 |
| 20260507233508 | 13 | 330 | 6.4 | 25.7 | 0.00 | 0.00 | 0.00 | 41 | 1010.5 |
| 20260507233036 | 13 | 259 | 9.7 | 25.7 | 0.00 | 0.00 | 0.00 | 40 | 1010.6 |
| 20260507232504 | 13 | 303 | 3.2 | 17.7 | 0.00 | 0.00 | 0.00 | 41 | 1010.6 |
| 20260507232007 | 13 | 24 | 3.2 | 14.5 | 0.00 | 0.00 | 0.00 | 41 | 1010.4 |
| 20260507231526 | 13 | 328 | 3.2 | 11.3 | 0.00 | 0.00 | 0.00 | 40 | 1010.4 |
| 20260507231012 | 13 | 311 | 1.6 | 16.1 | 0.00 | 0.00 | 0.00 | 41 | 1010.3 |
| 20260507230510 | 13 | 357 | 4.8 | 16.1 | 0.00 | 0.00 | 0.00 | 40 | 1010.3 |
| 20260507230018 | 13 | 330 | 1.6 | 14.5 | 0.00 | 0.00 | 0.00 | 40 | 1010.4 |
| 20260507225510 | 13 | 325 | 3.2 | 14.5 | 0.00 | 0.00 | 0.00 | 39 | 1010.3 |
| 20260507225009 | 13 | 349 | 3.2 | 19.3 | 0.00 | 0.00 | 0.00 | 39 | 1010.2 |
| 20260507224522 | 14 | 304 | 8.0 | 20.9 | 0.00 | 0.00 | 0.00 | 39 | 1010.2 |
| 20260507224013 | 13 | 314 | 8.0 | 20.9 | 0.00 | 0.00 | 0.00 | 38 | 1010.0 |
| 20260507223510 | 14 | 218 | 4.8 | 8.0 | 0.00 | 0.00 | 0.00 | 38 | 1010.1 |
| 20260507223027 | 14 | 25 | 1.6 | 12.9 | 0.00 | 0.00 | 0.00 | 39 | 1010.0 |
| 20260507222509 | 14 | 208 | 3.2 | 12.9 | 0.00 | 0.00 | 0.00 | 38 | 1010.0 |
| 20260507222008 | 14 | 306 | 3.2 | 22.5 | 0.00 | 0.00 | 0.00 | 38 | 1009.9 |
| 20260507221517 | 15 | 275 | 9.7 | 22.5 | 0.00 | 0.00 | 0.00 | 36 | 1009.9 |
| 20260507221010 | 15 | 60 | 3.2 | 11.3 | 0.00 | 0.00 | 0.00 | 36 | 1009.8 |
| 20260507220508 | 14 | 104 | 3.2 | 19.3 | 0.00 | 0.00 | 0.00 | 35 | 1009.8 |
| 20260507220017 | 15 | 316 | 1.6 | 19.3 | 0.00 | 0.00 | 0.00 | 37 | 1009.7 |
| 20260507215505 | 15 | 169 | 4.8 | 17.7 | 0.00 | 0.00 | 0.00 | 37 | 1009.6 |
| 20260507215007 | 15 | 256 | 3.2 | 16.1 | 0.00 | 0.00 | 0.00 | 36 | 1009.6 |
| 20260507214527 | 15 | 241 | 3.2 | 19.3 | 0.00 | 0.00 | 0.00 | 35 | 1009.7 |
| 20260507214011 | 15 | 284 | 6.4 | 20.9 | 0.00 | 0.00 | 0.00 | 36 | 1009.6 |
| 20260507213513 | 15 | 85 | 3.2 | 20.9 | 0.00 | 0.00 | 0.00 | 36 | 1009.5 |
| 20260507213025 | 14 | 280 | 4.8 | 16.1 | 0.00 | 0.00 | 0.00 | 38 | 1009.4 |
| 20260507212506 | 14 | 330 | 4.8 | 19.3 | 0.00 | 0.00 | 0.00 | 37 | 1009.4 |
| 20260507212008 | 15 | 4 | 6.4 | 19.3 | 0.00 | 0.00 | 0.00 | 36 | 1009.5 |
| 20260507211528 | 15 | 251 | 3.2 | 19.3 | 0.00 | 0.00 | 0.00 | 35 | 1009.6 |
| 20260507211007 | 15 | 282 | 1.6 | 16.1 | 0.00 | 0.00 | 0.00 | 35 | 1009.5 |
| 20260507210509 | 15 | 245 | 3.2 | 16.1 | 0.00 | 0.00 | 0.00 | 36 | 1009.4 |
| 20260507210031 | 15 | 192 | 1.6 | 16.1 | 0.00 | 0.00 | 0.00 | 35 | 1009.4 |
| 20260507205506 | 15 | 295 | 3.2 | 16.1 | 0.00 | 0.00 | 0.00 | 36 | 1009.3 |
| 20260507205008 | 15 | 343 | 4.8 | 14.5 | 0.00 | 0.00 | 0.00 | 35 | 1009.2 |
| 20260507204519 | 15 | 296 | 0.0 | 27.4 | 0.00 | 0.00 | 0.00 | 36 | 1009.4 |
| 20260507204006 | 15 | 271 | 4.8 | 27.4 | 0.00 | 0.00 | 0.00 | 33 | 1009.4 |
| 20260507203510 | 16 | 124 | 1.6 | 12.9 | 0.00 | 0.00 | 0.00 | 36 | 1009.3 |
| 20260507203024 | 16 | 315 | 1.6 | 12.9 | 0.00 | 0.00 | 0.00 | 35 | 1009.3 |
| 20260507202508 | 15 | 257 | 3.2 | 17.7 | 0.00 | 0.00 | 0.00 | 38 | 1009.3 |
| 20260507202009 | 15 | 347 | 6.4 | 17.7 | 0.00 | 0.00 | 0.00 | 34 | 1009.4 |
| 20260507201525 | 15 | 319 | 3.2 | 17.7 | 0.00 | 0.00 | 0.00 | 35 | 1009.4 |
| 20260507201007 | 16 | 33 | 4.8 | 17.7 | 0.00 | 0.00 | 0.00 | 38 | 1009.3 |
| 20260507200509 | 16 | 254 | 4.8 | 14.5 | 0.00 | 0.00 | 0.00 | 35 | 1009.3 |
| 20260507200031 | 16 | 203 | 6.4 | 19.3 | 0.00 | 0.00 | 0.00 | 33 | 1009.5 |
| 20260507195512 | 16 | 245 | 4.8 | 19.3 | 0.00 | 0.00 | 0.00 | 35 | 1009.5 |
| 20260507195008 | 16 | 247 | 3.2 | 16.1 | 0.00 | 0.00 | 0.00 | 35 | 1009.5 |
| 20260507194519 | 16 | 270 | 3.2 | 16.1 | 0.00 | 0.00 | 0.00 | 37 | 1009.5 |
| 20260507194007 | 15 | 212 | 3.2 | 14.5 | 0.00 | 0.00 | 0.00 | 38 | 1009.5 |
| 20260507193509 | 15 | 284 | 3.2 | 14.5 | 0.00 | 0.00 | 0.00 | 38 | 1009.6 |
| 20260507193025 | 15 | 219 | 4.8 | 19.3 | 0.00 | 0.00 | 0.00 | 37 | 1009.6 |
| 20260507192510 | 15 | 83 | 6.4 | 19.3 | 0.00 | 0.00 | 0.00 | 36 | 1009.7 |
| 20260507192011 | 15 | 309 | 1.6 | 12.9 | 0.00 | 0.00 | 0.00 | 39 | 1009.7 |
| 20260507125510 | 10 | 226 | 1.6 | 6.4 | 0.00 | 0.05 | 0.00 | 60 | 1013.0 |
| 20260507125012 | 10 | 281 | 1.6 | 6.4 | 0.00 | 0.05 | 0.00 | 59 | 1013.0 |
| 20260507124528 | 10 | 259 | 1.6 | 3.2 | 0.00 | 0.05 | 0.00 | 61 | 1013.1 |
| 20260507124008 | 10 | 292 | 1.6 | 3.2 | 0.00 | 0.05 | 0.00 | 63 | 1013.1 |
| 20260507123511 | 10 | 293 | 0.0 | 3.2 | 0.00 | 0.05 | 0.00 | 66 | 1013.1 |
| 20260507123027 | 9 | 22 | 0.0 | 3.2 | 0.00 | 0.05 | 0.00 | 67 | 1013.1 |
| 20260507122503 | 9 | 330 | 0.0 | 3.2 | 0.00 | 0.05 | 0.00 | 70 | 1013.2 |
| 20260507122005 | 9 | 56 | 0.0 | 3.2 | 0.00 | 0.05 | 0.00 | 69 | 1013.2 |
| 20260507121512 | 9 | 237 | 0.0 | 3.2 | 0.00 | 0.05 | 0.00 | 70 | 1013.2 |
| 20260507121008 | 9 | 162 | 0.0 | 3.2 | 0.00 | 0.08 | 0.00 | 72 | 1013.2 |
| 20260507120509 | 8 | 159 | 0.0 | 3.2 | 0.00 | 0.10 | 0.00 | 73 | 1013.2 |
| 20260507120021 | 8 | 153 | 0.0 | 0.0 | 0.00 | 0.13 | 0.00 | 75 | 1013.2 |
| 20260507115506 | 8 | 131 | 0.0 | 0.0 | 0.00 | 0.13 | 0.00 | 76 | 1013.2 |
| 20260507115013 | 7 | 178 | 0.0 | 0.0 | 0.00 | 0.15 | 0.00 | 80 | 1013.1 |
| 20260507114521 | 7 | 186 | 0.0 | 0.0 | 0.00 | 0.18 | 0.00 | 81 | 1013.2 |
| 20260507114018 | 6 | 203 | 0.0 | 0.0 | 0.00 | 0.18 | 0.00 | 83 | 1013.2 |
| 20260507113509 | 6 | 203 | 0.0 | 0.0 | 0.00 | 0.18 | 0.00 | 83 | 1013.0 |
| 20260507113028 | 6 | 203 | 0.0 | 0.0 | 0.00 | 0.18 | 0.00 | 84 | 1013.0 |
| 20260507112510 | 6 | 203 | 0.0 | 0.0 | 0.00 | 0.18 | 0.00 | 83 | 1012.9 |
| 20260507112011 | 6 | 203 | 0.0 | 0.0 | 0.00 | 0.18 | 0.00 | 84 | 1012.7 |
| 20260507111527 | 5 | 203 | 0.0 | 0.0 | 0.00 | 0.18 | 0.00 | 85 | 1012.7 |
| 20260507111009 | 5 | 203 | 0.0 | 0.0 | 0.00 | 0.18 | 0.00 | 85 | 1012.7 |
| 20260507110504 | 5 | 204 | 0.0 | 0.0 | 0.00 | 0.18 | 0.00 | 85 | 1012.8 |
| 20260507110016 | 5 | 204 | 0.0 | 0.0 | 0.00 | 0.18 | 0.00 | 86 | 1012.8 |
| 20260507105506 | 5 | 204 | 0.0 | 0.0 | 0.00 | 0.20 | 0.00 | 86 | 1012.8 |
| 20260507105010 | 5 | 204 | 0.0 | 0.0 | 0.00 | 0.20 | 0.00 | 86 | 1012.7 |
| 20260507104520 | 5 | 204 | 0.0 | 0.0 | 0.00 | 0.23 | 0.00 | 86 | 1012.5 |
| 20260507104011 | 5 | 204 | 0.0 | 0.0 | 0.00 | 0.25 | 0.00 | 85 | 1012.4 |
| 20260507103505 | 4 | 204 | 0.0 | 0.0 | 0.00 | 0.28 | 0.00 | 85 | 1012.4 |
| 20260507103029 | 4 | 204 | 0.0 | 0.0 | 0.00 | 0.30 | 0.00 | 85 | 1012.3 |
| 20260507102509 | 4 | 204 | 0.0 | 0.0 | 0.00 | 0.33 | 0.00 | 84 | 1012.3 |
| 20260507102011 | 4 | 176 | 0.0 | 0.0 | 0.00 | 0.36 | 0.00 | 83 | 1012.3 |
| 20260507101527 | 4 | 176 | 0.0 | 0.0 | 0.00 | 0.38 | 0.00 | 82 | 1012.3 |
| 20260507101007 | 5 | 176 | 0.0 | 0.0 | 0.00 | 0.41 | 0.00 | 83 | 1012.4 |
| 20260507100510 | 4 | 176 | 0.0 | 0.0 | 0.00 | 0.43 | 0.00 | 83 | 1012.3 |
| 20260507100012 | 4 | 176 | 0.0 | 0.0 | 0.00 | 0.46 | 0.00 | 82 | 1012.2 |
| 20260507095508 | 5 | 176 | 0.0 | 0.0 | 0.00 | 0.51 | 0.00 | 82 | 1012.3 |
| 20260507095007 | 5 | 176 | 0.0 | 0.0 | 0.00 | 0.53 | 0.00 | 82 | 1012.3 |
| 20260507094517 | 5 | 176 | 0.0 | 0.0 | 0.00 | 0.56 | 0.00 | 82 | 1012.3 |
| 20260507094005 | 5 | 176 | 0.0 | 0.0 | 0.00 | 0.58 | 0.00 | 82 | 1012.2 |
| 20260507093507 | 5 | 176 | 0.0 | 3.2 | 0.00 | 0.61 | 0.00 | 82 | 1012.3 |
| 20260507093025 | 4 | 176 | 0.0 | 3.2 | 0.00 | 0.61 | 0.00 | 83 | 1012.2 |
| 20260507092513 | 4 | 176 | 0.0 | 3.2 | 0.00 | 0.64 | 0.00 | 83 | 1012.3 |
| 20260507092008 | 4 | 243 | 0.0 | 0.0 | 0.00 | 0.66 | 0.00 | 83 | 1012.3 |
| 20260507091527 | 4 | 243 | 0.0 | 0.0 | 0.00 | 0.66 | 0.00 | 81 | 1012.4 |
| 20260507091011 | 4 | 243 | 0.0 | 0.0 | 0.00 | 0.69 | 0.00 | 81 | 1012.5 |
| 20260507090510 | 5 | 243 | 0.0 | 0.0 | 0.00 | 0.69 | 0.00 | 80 | 1012.4 |
| 20260507090026 | 5 | 243 | 0.0 | 0.0 | 0.00 | 0.71 | 0.00 | 80 | 1012.4 |
| 20260507085509 | 6 | 243 | 0.0 | 0.0 | 0.00 | 0.74 | 0.00 | 80 | 1012.4 |
| 20260507085010 | 5 | 243 | 0.0 | 0.0 | 0.00 | 0.76 | 0.00 | 78 | 1012.4 |
| 20260507084517 | 5 | 243 | 0.0 | 0.0 | 0.00 | 0.81 | 0.00 | 76 | 1012.3 |
| 20260507084007 | 6 | 243 | 0.0 | 0.0 | 0.00 | 0.81 | 0.00 | 75 | 1012.4 |
| 20260507083507 | 6 | 243 | 0.0 | 1.6 | 0.00 | 0.84 | 0.00 | 75 | 1012.3 |
| 20260507083018 | 6 | 243 | 0.0 | 1.6 | 0.00 | 0.86 | 0.00 | 75 | 1012.4 |
| 20260507082505 | 6 | 243 | 1.6 | 3.2 | 0.00 | 0.89 | 0.00 | 75 | 1012.3 |
| 20260507082008 | 6 | 228 | 0.0 | 3.2 | 0.00 | 0.91 | 0.00 | 75 | 1012.3 |
| 20260507081524 | 6 | 228 | 0.0 | 3.2 | 0.00 | 0.94 | 0.00 | 75 | 1012.3 |
| 20260507081009 | 6 | 228 | 0.0 | 3.2 | 0.00 | 0.94 | 0.00 | 75 | 1012.3 |
| 20260507080508 | 6 | 228 | 0.0 | 3.2 | 0.00 | 0.97 | 0.00 | 74 | 1012.4 |
| 20260507080034 | 6 | 228 | 0.0 | 3.2 | 0.00 | 0.97 | 0.00 | 73 | 1012.4 |
| 20260507075507 | 6 | 228 | 0.0 | 3.2 | 0.00 | 0.97 | 0.00 | 73 | 1012.4 |
| 20260507075011 | 6 | 228 | 0.0 | 3.2 | 0.00 | 0.97 | 0.00 | 72 | 1012.4 |
| 20260507074530 | 7 | 317 | 0.0 | 3.2 | 0.00 | 0.97 | 0.00 | 70 | 1012.4 |
| 20260507074014 | 7 | 317 | 0.0 | 4.8 | 0.00 | 0.97 | 0.00 | 70 | 1012.4 |
| 20260507073512 | 7 | 320 | 3.2 | 4.8 | 0.00 | 0.97 | 0.00 | 69 | 1012.4 |
| 20260507073018 | 7 | 321 | 3.2 | 4.8 | 0.00 | 0.97 | 0.00 | 69 | 1012.5 |
| 20260507072507 | 7 | 322 | 3.2 | 3.2 | 0.00 | 0.97 | 0.00 | 69 | 1012.5 |
| 20260507072012 | 7 | 343 | 0.0 | 0.0 | 0.00 | 0.97 | 0.00 | 68 | 1012.6 |
| 20260507071553 | 7 | 343 | 0.0 | 0.0 | 0.00 | 0.97 | 0.00 | 68 | 1012.6 |
| 20260507071007 | 7 | 352 | 0.0 | 0.0 | 0.00 | 0.97 | 0.00 | 66 | 1012.6 |
| 20260507070509 | 7 | 20 | 0.0 | 0.0 | 0.00 | 0.97 | 0.00 | 66 | 1012.6 |
| 20260507070026 | 7 | 20 | 0.0 | 0.0 | 0.00 | 0.97 | 0.00 | 65 | 1012.6 |
| 20260507065507 | 7 | 20 | 0.0 | 0.0 | 0.00 | 0.97 | 0.00 | 64 | 1012.7 |
| 20260507065007 | 7 | 20 | 0.0 | 0.0 | 0.00 | 0.97 | 0.00 | 65 | 1012.7 |
| 20260507064527 | 7 | 9 | 0.0 | 0.0 | 0.00 | 0.99 | 0.00 | 65 | 1012.7 |
| 20260507064010 | 7 | 9 | 0.0 | 0.0 | 0.00 | 0.99 | 0.00 | 66 | 1012.7 |
| 20260507063510 | 7 | 10 | 0.0 | 3.2 | 0.00 | 0.99 | 0.00 | 65 | 1012.7 |
| 20260507063032 | 7 | 16 | 0.0 | 3.2 | 0.00 | 1.02 | 0.00 | 66 | 1012.7 |
| 20260507062514 | 7 | 66 | 0.0 | 4.8 | 0.00 | 1.04 | 0.00 | 65 | 1012.7 |
| 20260507062007 | 7 | 80 | 0.0 | 4.8 | 0.00 | 1.04 | 0.00 | 65 | 1012.7 |
| 20260507061519 | 8 | 94 | 0.0 | 3.2 | 0.00 | 1.04 | 0.00 | 65 | 1012.7 |
| 20260507061010 | 8 | 106 | 0.0 | 4.8 | 0.00 | 1.07 | 0.00 | 65 | 1012.8 |
| 20260507060507 | 8 | 82 | 1.6 | 4.8 | 0.00 | 1.07 | 0.00 | 65 | 1012.7 |
| 20260507060022 | 8 | 72 | 0.0 | 3.2 | 0.00 | 1.09 | 0.00 | 67 | 1012.8 |
| 20260507055507 | 8 | 328 | 0.0 | 3.2 | 0.00 | 1.09 | 0.00 | 67 | 1012.9 |
| 20260507055012 | 8 | 343 | 0.0 | 3.2 | 0.00 | 1.09 | 0.00 | 67 | 1012.9 |
| 20260507054528 | 8 | 347 | 0.0 | 3.2 | 0.00 | 1.09 | 0.00 | 66 | 1013.0 |
| 20260507054012 | 8 | 347 | 0.0 | 6.4 | 0.00 | 1.12 | 0.00 | 65 | 1013.0 |
| 20260507053507 | 8 | 343 | 0.0 | 6.4 | 0.00 | 1.12 | 0.00 | 65 | 1013.2 |
| 20260507053032 | 8 | 315 | 1.6 | 6.4 | 0.00 | 1.12 | 0.00 | 64 | 1013.3 |
| 20260507052510 | 8 | 338 | 1.6 | 4.8 | 0.00 | 1.12 | 0.00 | 63 | 1013.4 |
| 20260507052010 | 8 | 330 | 0.0 | 8.0 | 0.00 | 1.12 | 0.00 | 63 | 1013.4 |
| 20260507051539 | 8 | 8 | 1.6 | 8.0 | 0.00 | 1.14 | 0.00 | 62 | 1013.5 |
| 20260507051009 | 8 | 318 | 1.6 | 8.0 | 0.00 | 1.14 | 0.00 | 62 | 1013.4 |
| 20260507050507 | 8 | 326 | 1.6 | 4.8 | 0.00 | 1.14 | 0.00 | 62 | 1013.4 |
| 20260507050022 | 8 | 324 | 3.2 | 4.8 | 0.00 | 1.17 | 0.00 | 61 | 1013.4 |
| 20260507045510 | 8 | 330 | 3.2 | 4.8 | 0.00 | 1.17 | 0.00 | 61 | 1013.4 |
| 20260507045010 | 8 | 322 | 3.2 | 4.8 | 0.00 | 1.17 | 0.00 | 60 | 1013.3 |
| 20260507044527 | 8 | 348 | 0.0 | 3.2 | 0.00 | 1.19 | 0.00 | 61 | 1013.3 |
| 20260507044010 | 8 | 18 | 1.6 | 8.0 | 0.00 | 1.19 | 0.00 | 61 | 1013.3 |
| 20260507043508 | 8 | 31 | 0.0 | 8.0 | 0.00 | 1.19 | 0.00 | 61 | 1013.3 |
| 20260507043028 | 8 | 347 | 1.6 | 6.4 | 0.00 | 1.19 | 0.00 | 62 | 1013.3 |
| 20260507042509 | 8 | 26 | 0.0 | 3.2 | 0.00 | 1.19 | 0.00 | 61 | 1013.4 |
| 20260507042008 | 8 | 6 | 1.6 | 3.2 | 0.00 | 1.19 | 0.00 | 60 | 1013.4 |
| 20260507041529 | 8 | 358 | 0.0 | 3.2 | 0.00 | 1.19 | 0.00 | 62 | 1013.3 |
| 20260507041010 | 8 | 4 | 0.0 | 3.2 | 0.00 | 1.19 | 0.00 | 61 | 1013.3 |
| 20260507040512 | 9 | 338 | 1.6 | 3.2 | 0.00 | 1.19 | 0.00 | 61 | 1013.3 |
| 20260507040030 | 9 | 330 | 0.0 | 3.2 | 0.00 | 1.19 | 0.00 | 60 | 1013.3 |
| 20260507035509 | 9 | 348 | 0.0 | 3.2 | 0.00 | 1.19 | 1.19 | 60 | 1013.3 |
| 20260507035010 | 9 | 40 | 0.0 | 3.2 | 0.00 | 1.19 | 1.19 | 60 | 1013.1 |
| 20260507034532 | 9 | 27 | 1.6 | 3.2 | 0.00 | 1.19 | 1.19 | 59 | 1013.1 |
| 20260507034008 | 9 | 324 | 0.0 | 4.8 | 0.00 | 1.19 | 1.19 | 60 | 1013.2 |
| 20260507033507 | 9 | 324 | 0.0 | 6.4 | 0.00 | 1.19 | 1.19 | 60 | 1013.3 |
| 20260507033015 | 9 | 321 | 3.2 | 6.4 | 0.00 | 1.19 | 1.19 | 59 | 1013.2 |
| 20260507032503 | 9 | 18 | 0.0 | 4.8 | 0.00 | 1.19 | 1.19 | 61 | 1013.1 |
| 20260507032010 | 9 | 30 | 1.6 | 8.0 | 0.00 | 1.19 | 1.19 | 60 | 1013.1 |
| 20260507031512 | 9 | 314 | 3.2 | 8.0 | 0.00 | 1.19 | 1.19 | 60 | 1013.1 |
| 20260507031004 | 9 | 28 | 0.0 | 3.2 | 0.00 | 1.19 | 1.19 | 61 | 1012.9 |
| 20260507030506 | 9 | 44 | 0.0 | 4.8 | 0.00 | 1.19 | 1.19 | 60 | 1012.9 |
| 20260507030011 | 10 | 46 | 0.0 | 4.8 | 0.00 | 1.19 | 1.19 | 59 | 1012.8 |
| 20260507025505 | 10 | 55 | 1.6 | 4.8 | 0.00 | 1.19 | 1.19 | 59 | 1012.9 |
| 20260507025005 | 10 | 39 | 0.0 | 4.8 | 0.00 | 1.19 | 1.19 | 60 | 1012.9 |
| 20260507024510 | 10 | 39 | 1.6 | 6.4 | 0.00 | 1.19 | 1.19 | 60 | 1013.0 |
| 20260507024007 | 10 | 43 | 3.2 | 6.4 | 0.00 | 1.19 | 1.19 | 60 | 1012.9 |
| 20260507023503 | 10 | 353 | 0.0 | 4.8 | 0.00 | 1.19 | 1.19 | 60 | 1012.7 |
| 20260507023023 | 10 | 325 | 0.0 | 4.8 | 0.00 | 1.19 | 1.19 | 59 | 1012.8 |
| 20260507022505 | 10 | 357 | 0.0 | 3.2 | 0.00 | 1.19 | 1.19 | 59 | 1012.9 |
| 20260507022006 | 10 | 18 | 0.0 | 3.2 | 0.00 | 1.19 | 1.19 | 60 | 1012.7 |
| 20260507021508 | 10 | 17 | 0.0 | 3.2 | 0.00 | 1.19 | 1.19 | 60 | 1012.5 |
| 20260507021004 | 10 | 52 | 0.0 | 4.8 | 0.00 | 1.19 | 1.19 | 59 | 1012.5 |
| 20260507020505 | 10 | 86 | 0.0 | 6.4 | 0.00 | 1.19 | 1.19 | 59 | 1012.4 |
| 20260507020018 | 10 | 73 | 1.6 | 6.4 | 0.00 | 1.19 | 1.19 | 58 | 1012.3 |
| 20260507015506 | 10 | 41 | 1.6 | 6.4 | 0.00 | 1.19 | 1.19 | 58 | 1012.3 |
| 20260507015008 | 10 | 60 | 3.2 | 6.4 | 0.00 | 1.19 | 1.19 | 58 | 1012.2 |
| 20260507014513 | 10 | 27 | 3.2 | 9.7 | 0.00 | 1.19 | 1.19 | 58 | 1012.2 |
| 20260507014006 | 10 | 48 | 3.2 | 9.7 | 0.00 | 1.19 | 1.19 | 60 | 1012.0 |
| 20260507013505 | 10 | 81 | 1.6 | 4.8 | 0.00 | 1.19 | 1.19 | 59 | 1012.0 |
| 20260507013013 | 10 | 42 | 0.0 | 4.8 | 0.00 | 1.19 | 1.19 | 59 | 1011.9 |